Flag for U.S.A. Weather past 2 weeks in Columbia, South Carolina, U.S.A.

Now
83 °F

Passing clouds.


Feels Like: 83 °F
Forecast: 63 / 82 °F
Wind: 5 mph from North

Location: Columbia Owens Downtown Airport

Current Time: Sep 30, 2014 at 4:06:47 PM

Latest Report: Sep 30, 2014 at 2:53 PM


Visibility: 10 mi

Pressure: 29.87 "Hg

Humidity: 46%

Dew point: 60 °F

Location of ColumbiaLocation

Historic Weather in Columbia — Graph

°F

Columbia temperature yesterday

Maximum temperature yesterday: 74 °F (at 3:53 PM)
Minimum temperature yesterday: 68 °F (at 11:53 PM)
Average temperature yesterday: 71 °F

Past Weeks' High & Low Weather Summary

 TemperatureHumidityPressure
High89 °F (Sep 16, 4:53 PM)94% (Sep 16, 5:53 AM)30.28 "Hg (Sep 16, 5:53 AM)
Low57 °F (Sep 24, 1:53 AM)39% (Sep 21, 4:53 PM)29.87 "Hg (Sep 21, 5:53 PM)
Average71 °F75%30.07 "Hg
* Reported Sep 15 2:53 PM — Sep 30 2:53 PM, Columbia, Weather by CustomWeather, © 2014

Note: Actual official high and low records may vary slightly from our data, if they occured in-between our weather recording intervals... More about our weather records

Advertising

Columbia weather history for previous 24 hours

 ConditionsComfort  
Time TempWeatherWind HumidityBarometerVisibility
2:53 PM
Sep 30
83 °FPassing clouds.5 mph46%29.87 "Hg10 mi
1:53 PM83 °FSunny.6 mph46%29.88 "Hg10 mi
12:53 PM80 °FSunny.3 mph47%29.91 "Hg10 mi
11:53 AM77 °FSunny.3 mph52%29.93 "Hg10 mi
10:53 AM75 °FSunny.6 mph58%29.94 "Hg10 mi
9:53 AM72 °FSunny.5 mph66%29.95 "Hg10 mi
8:53 AM68 °FSunny.3 mph78%29.95 "Hg10 mi
7:53 AM62 °FClear.No wind93%29.94 "Hg8 mi
6:53 AM63 °FClear.No wind90%29.92 "Hg8 mi
5:53 AM63 °FClear.No wind90%29.92 "Hg10 mi
4:53 AM63 °FPassing clouds.No wind90%29.91 "Hg10 mi
3:53 AM64 °FClear.No wind87%29.92 "Hg10 mi
2:53 AM66 °FPassing clouds.No wind81%29.93 "Hg10 mi
1:53 AM67 °FMostly cloudy.No wind79%29.94 "Hg10 mi
12:53 AM67 °FMostly cloudy.No wind79%29.95 "Hg10 mi
11:53 PM
Sep 29
68 °FMostly cloudy.No wind82%29.97 "Hg10 mi
10:53 PM69 °FMostly cloudy.3 mph81%29.98 "Hg10 mi
9:53 PM69 °FOvercast.3 mph84%29.98 "Hg10 mi
8:53 PM70 °FOvercast.3 mph84%29.97 "Hg10 mi
7:53 PM70 °FOvercast.3 mph81%29.96 "Hg10 mi
6:53 PM70 °FMostly cloudy.5 mph84%29.96 "Hg10 mi
5:53 PM71 °FOvercast.5 mph78%29.96 "Hg10 mi
4:53 PM72 °FMore clouds than sun.3 mph76%29.95 "Hg10 mi
Weather by CustomWeather, © 2014

See weather overviewHow to use our weather pages